Kahului, HI

1:01 AM HST on September 21, 2017 (GMT -1000)
Kahului

Weather History for PHOG - April, 2014

Change the Weather History Date:

Thursday, April 17, 2014

  Actual Average Record
Temperature  
Mean Temperature 78 °F 74 °F  
Max Temperature 84 °F 82 °F 91 °F (1981)
Min Temperature 71 °F 66 °F 58 °F (1952)
Degree Days  
Heating Degree Days 0 0  
Month to date heating degree days 0 0  
Since 1 July heating degree days 0 0  
Cooling Degree Days 13 9  
Month to date cooling degree days 166 153  
Year to date cooling degree days 970 807  
Growing Degree Days 28 (Base 50)    
Moisture  
Dew Point 68 °F    
Average Humidity 71    
Maximum Humidity 84    
Minimum Humidity 58    
Precipitation  
Precipitation 0.01 in 0.05 in 3.27 in (1950)
Month to date precipitation 1.65 1.03  
Year to date precipitation 12.05 8.24  
Snow  
Snow 0.00 in - - ()
Month to date snowfall 0.0  
Since 1 July snowfall 0.0  
Snow Depth 0.00 in    
Sea Level Pressure  
Sea Level Pressure 30.10 in    
Wind  
Wind Speed 16 mph (NE)    
Max Wind Speed 26 mph    
Max Gust Speed 36 mph    
Visibility 10 miles    
Events Rain    
T = Trace of Precipitation, MM = Missing Value Source: NWS Daily Summary

Daily Weather History Graph

Daily Weather History Graph

Search for Another Location

Airport or City:

Trip Planner

Search our weather history database for the weather conditions in past years. The results will help you decide how hot, cold, wet, or windy it might be!

Date:

Astronomy

Apr. 17, 2014 Rise Set
Actual Time 6:05 AM HST 6:45 PM HST
Civil Twilight 5:42 AM HST 7:08 PM HST
Nautical Twilight 5:15 AM HST 7:34 PM HST
Astronomical Twilight 4:48 AM HST 8:01 PM HST
Moon 9:26 PM HST (4/17) 7:59 AM HST (4/17)
Length of Visible Light 13h 25m
Length of Day
12h 40m
Waning Gibbous, 92% of the Moon is Illuminated
Apr 17
Waning Gibbous
Apr 21
Last Quarter
Apr 28
New
May 6
First Quarter
May 14
Full

Hourly Weather History & Observations

Time (HST) Temp. Heat Index Dew Point Humidity Pressure Visibility Wind Dir Wind Speed Gust Speed Precip Events Conditions
12:54 AM 72.0 °F - 66.0 °F 81% 30.13 in 10.0 mi NE 11.5 mph - 0.00 in   Clear
1:54 AM 72.0 °F - 66.9 °F 84% 30.10 in 10.0 mi NE 17.3 mph 21.9 mph 0.00 in   Scattered Clouds
2:54 AM 72.0 °F - 66.9 °F 84% 30.09 in 10.0 mi NE 11.5 mph 19.6 mph 0.00 in Rain Light Rain
3:54 AM 72.0 °F - 66.0 °F 81% 30.08 in 10.0 mi NE 13.8 mph - 0.00 in   Clear
4:54 AM 71.1 °F - 66.0 °F 84% 30.09 in 10.0 mi NE 10.4 mph - 0.00 in Rain Light Rain
5:54 AM 73.0 °F - 66.9 °F 81% 30.11 in 10.0 mi NE 16.1 mph 21.9 mph 0.01 in   Mostly Cloudy
6:54 AM 73.0 °F - 66.9 °F 81% 30.12 in 10.0 mi NE 13.8 mph - 0.00 in   Scattered Clouds
7:54 AM 73.0 °F - 68.0 °F 84% 30.14 in 10.0 mi ENE 12.7 mph 19.6 mph 0.00 in Rain Light Rain
8:54 AM 75.9 °F - 69.1 °F 79% 30.14 in 10.0 mi NE 16.1 mph 23.0 mph 0.00 in Rain Light Rain
9:54 AM 77.0 °F - 69.1 °F 76% 30.14 in 10.0 mi NE 18.4 mph 26.5 mph 0.00 in Rain Light Rain
10:54 AM 81.0 °F 84.1 °F 69.1 °F 67% 30.13 in 10.0 mi NE 21.9 mph 27.6 mph 0.00 in Rain Light Rain
11:54 AM 80.1 °F 82.7 °F 68.0 °F 67% 30.11 in 10.0 mi ENE 20.7 mph 28.8 mph 0.00 in   Scattered Clouds
12:54 PM 82.0 °F 84.9 °F 68.0 °F 62% 30.08 in 10.0 mi NE 26.5 mph 34.5 mph N/A   Scattered Clouds
1:54 PM 82.0 °F 84.5 °F 66.9 °F 60% 30.05 in 10.0 mi NE 19.6 mph 33.4 mph N/A   Scattered Clouds
2:54 PM 82.9 °F 85.8 °F 68.0 °F 60% 30.02 in 10.0 mi ENE 17.3 mph 27.6 mph N/A   Scattered Clouds
3:54 PM 82.9 °F 85.4 °F 66.9 °F 58% 30.01 in 10.0 mi NE 17.3 mph 27.6 mph N/A   Scattered Clouds
4:54 PM 81.0 °F 83.3 °F 66.9 °F 62% 30.03 in 10.0 mi NE 18.4 mph 31.1 mph N/A   Scattered Clouds
5:54 PM 77.0 °F - 68.0 °F 74% 30.04 in 10.0 mi ENE 17.3 mph 27.6 mph N/A   Scattered Clouds
6:54 PM 75.0 °F - 66.9 °F 76% 30.09 in 10.0 mi ENE 11.5 mph 20.7 mph N/A   Scattered Clouds
7:54 PM 75.0 °F - 68.0 °F 79% 30.10 in 10.0 mi ENE 15.0 mph 21.9 mph N/A   Clear
8:54 PM 73.9 °F - 68.0 °F 82% 30.13 in 10.0 mi ENE 9.2 mph - N/A   Clear
9:54 PM 73.9 °F - 69.1 °F 85% 30.14 in 10.0 mi East 9.2 mph - N/A   Clear
10:54 PM 73.9 °F - 69.1 °F 85% 30.13 in 10.0 mi ENE 11.5 mph - 0.00 in Rain Light Rain
11:54 PM 73.9 °F - 69.1 °F 85% 30.13 in 10.0 mi NE 13.8 mph - 0.00 in   Partly Cloudy